Regional Weather Roundup
Issued by NWS

Home | Current Version | Previous Version | Graphics & Text | Print | Product List | Glossary On
Versions: 1 2 3 4 5 6 7 8 9 10 11 12 13 14 15 16 17 18 19 20 21 22 23 24 25 26 27 28 29 30 31 32 33 34 35 36 37 38 39 40 41 42 43 44 45 46 47 48 49 50
000
ASUS43 KMPX 190510
RWRMN
WEATHER ROUNDUP FOR MINNESOTA
NATIONAL WEATHER SERVICE TWIN CITIES/CHANHASSEN MN
1100 PM CST SAT FEB 18 2017


NOTE: "FAIR" INDICATES FEW OR NO CLOUDS BELOW 12,000 FEET WITH NO
SIGNIFICANT WEATHER AND/OR OBSTRUCTIONS TO VISIBILITY. N/A MEANS
CURRENT SKY AND/OR WEATHER CONDITIONS ARE NOT AVAILABLE.

MNZ060>063-068>070-190600-
   Twin Cities Metro

CITY           SKY/WX    TMP DP  RH WIND       PRES   REMARKS
TWIN CITIES    MOCLDY    42  34  73 CALM      29.84F
ST PAUL        CLOUDY    38  35  89 CALM      29.84F
CRYSTAL        MOCLDY    38  31  76 CALM      29.82F
BLAINE         PTCLDY    41  36  81 CALM      29.83S
LAKEVILLE      CLOUDY    37  34  87 S5        29.84F
EDEN PRAIRIE   CLOUDY    41  35  79 S3        29.82F
SOUTH ST PAUL  CLOUDY    38  33  82 CALM      29.83F
LAKE ELMO      FAIR      37  34  87 CALM      29.85S
$$
MNZ001>005-007-008-013>017-022>024-027-028-190600-
   Northwest Minnesota

CITY           SKY/WX    TMP DP  RH WIND       PRES   REMARKS
BEMIDJI        CLOUDY    34  32  93 CALM      29.82S
HALLOCK        CLOUDY    32  30  93 S5        29.83R WCI  27
ROSEAU         PTCLDY    30  27  86 CALM      29.82R
WARROAD        CLOUDY    30  27  86 SW5       29.83R WCI  25
THIEF RVR FALL CLOUDY    35  32  88 NE3       29.83S
CROOKSTON      CLOUDY    36  34  93 CALM      29.83S
FOSSTON        CLOUDY    32  30  93 CALM      29.83R
DETROIT LAKES  PTCLDY    36  34  93 S3        29.82S
MOORHEAD       MOCLDY    36  34  93 E6        29.82R
PARK RAPIDS    CLOUDY    36  30  79 NE3       29.80R
MAHNOMEN       MOCLDY    34  33  95 NE5       29.82R WCI  30
$$
MNZ006-009>011-018-025>026-190600-
   North Central Minnesota

CITY           SKY/WX    TMP DP  RH WIND       PRES   REMARKS
BAUDETTE       PTCLDY    31  28  89 W3        29.80S
FLAG ISLAND    CLOUDY    28  25  86 N5        29.81S WCI  23
INTL FALLS     PTCLDY    32  28  85 W3        29.80R
WASKISH        PTCLDY    32  30  93 W5        29.83S WCI  27
BIG FORK       PTCLDY    36  30  80 CALM      29.83R
LONGVILLE      PTCLDY    32  28  86 CALM      29.83R
GRAND RAPIDS   PTCLDY    36  31  82 N3        29.84R
CRANE LAKE     PTCLDY    34  30  86 CALM      29.82R
ORR            MOCLDY    34  28  80 CALM      29.79R
COOK           PTCLDY    36  30  80 W3        29.82R
WALKER         FAIR      36  30  80 CALM      29.82F
$$
MNZ012-019>021-037-190600-
   Northeast Minnesota

CITY           SKY/WX    TMP DP  RH WIND       PRES   REMARKS
DULUTH         PTCLDY    42  32  67 NW10      29.79R
ELY            CLEAR     36  30  80 W6        29.80R
HIBBING        CLOUDY    36  32  85 W6        29.81R
EVELETH        PTCLDY    35  31  83 CALM      29.82R
DULUTH HARBOR  CLOUDY    45  32  61 CALM      29.82R
TWO HARBORS    PTCLDY    45  34  65 CALM      29.77R
GRAND MARAIS     N/A     43  33  68 W6        29.75R
G MARAIS ARPRT PTCLDY    37  27  65 NW12G18   29.73R
$$
MNZ029>031-032-039>041-046>048-054>057-064-190600-
   West Central Minnesota

CITY           SKY/WX    TMP DP  RH WIND       PRES   REMARKS
FERGUS FALLS   PTCLDY    41  37  87 SE7       29.84S
WHEATON        CLEAR     36  34  93 SE9       29.82R
MORRIS         CLEAR     36  34  93 SE7       29.80R
ALEXANDRIA     CLEAR     37  35  92 E5        29.83R
ELBOW LAKE     FAIR      36  35  96 SE7       29.82R
WADENA         CLOUDY    34  34 100 CALM      29.82R
GLENWOOD       CLEAR     36  34  93 CALM      29.82R
APPLETON       CLEAR     39  36  87 SE5       29.81R
BENSON         CLEAR     45  36  70 S8        29.83R
ORTONVILLE     CLEAR     36  34  93 CALM      29.80R
WILLMAR        FAIR      37  36  93 CALM      29.84R
$$
MNZ033>034-036-042>043-049>051-058-059-190600-
   Central Minnesota

CITY           SKY/WX    TMP DP  RH WIND       PRES   REMARKS
ST CLOUD       CLOUDY    37  36  96 NE3       29.83R
SAUK CENTRE    FAIR      34  33  99 N3        29.83R
PAYNESVILLE    CLEAR     34  34 100 CALM      29.84R
AITKIN         CLOUDY    37  30  75 CALM      29.81R
PINE RIVER     PTCLDY    36  32  87 CALM      29.86R
BRAINERD       CLOUDY    37  33  85 CALM      29.83R
STAPLES        CLOUDY    36  34  93 CALM      29.82S
LONG PRAIRIE   FAIR      32  32 100 CALM      29.82F
LITTLE FALLS   CLEAR     34  32  93 CALM      29.83F
LITCHFIELD     CLEAR     39  37  93 CALM      29.83R
BUFFALO        PTCLDY    36  33  90 CALM      29.84S
MAPLE LAKE     PTCLDY    37  36  96 CALM      29.84R
HUTCHINSON     CLOUDY    35  35  99 CALM      29.84S FOG
$$
MNZ037-044-045-052-053-190600-
   East Central Minnesota

CITY           SKY/WX    TMP DP  RH WIND       PRES   REMARKS
PRINCETON      CLOUDY    37  34  87 CALM      29.84R
MORA           CLOUDY    36  32  87 CALM      29.85R
CAMBRIDGE      CLOUDY    39  30  70 CALM      29.82R
RUSH CITY      CLOUDY    43  36  75 CALM      29.84R
MOOSE LAKE     CLOUDY    37  30  75 CALM      29.81R
HINCKLEY       FAIR      41  36  81 CALM      29.83R
CLOQUET        PTCLDY    41  28  60 W7        29.82R
MCGREGOR       CLOUDY    41  34  75 CALM      29.83R
$$
MNZ071>073-080-081-089-090-097-098-190600-
   Southwest Minnesota

CITY           SKY/WX    TMP DP  RH WIND       PRES   REMARKS
MONTEVIDEO     CLEAR     39  39 100 S7        29.83R
GRANITE FALLS  CLEAR     40  36  86 SE7       29.84R
CANBY          CLEAR     35  34  96 CALM      29.82R
MARSHALL       CLEAR     36  34  92 S3        29.82S
REDWOOD FALLS  CLEAR     39  34  82 SE10      29.82S
OLIVIA         CLEAR     37  34  87 SE6       29.82R
PIPESTONE      CLOUDY    45  36  70 S8        29.81S
WINDOM         CLEAR     36  36 100 CALM      29.85R
WORTHINGTON    CLEAR     38  36  92 SE6       29.85R
JACKSON        CLEAR     39  34  81 S5        29.85R
TRACY          CLEAR     46  39  76 S10       29.83R
SLAYTON        CLEAR     38  37  96 S5        29.84R
$$
MNZ065>067-074>077-082>085-091>093-190600-
   South Central Minnesota

CITY           SKY/WX    TMP DP  RH WIND       PRES   REMARKS
MANKATO          N/A     41  35  79 SE8       29.85F
NEW ULM        CLEAR     37  34  87 SE8       29.83F
ST JAMES       CLEAR     36  36 100 CALM      29.86R
FAIRMONT       CLEAR     37  36  96 S6        29.85S
GLENCOE        CLEAR     35  35 100 CALM      29.83S
FARIBAULT      CLOUDY    32  30  93 CALM      29.86F
OWATONNA       CLEAR     32  30  93 CALM      29.87R
WASECA         CLEAR     36  34  93 E5        29.88S
ALBERT LEA     CLEAR     34  34 100 CALM      29.87S
$$
MNZ078>079-086>088-094>096-190600-
   Southeast Minnesota

CITY           SKY/WX    TMP DP  RH WIND       PRES   REMARKS
ROCHESTER      CLEAR     40  38  93 W5        29.88R
RED WING       CLOUDY    36  32  87 CALM      29.85F
STANTON        MOCLDY    34  32  91 S5        29.84F WCI  30
DODGE CENTER   FOG       36  36 100 CALM      29.87S VSB 1/4
WINONA         CLOUDY    34  32  93 CALM      29.88F
AUSTIN         FOG       36  34  93 CALM      29.86S VSB 3/4
PRESTON        CLEAR     39  37  90 W5        29.88S
$$
ABBREVIATIONS USED IN REMARKS
   TC - TEMPERATURES IN CELSIUS
  WCI - WIND CHILL INDEX
   HX - HEAT INDEX
  VSB - VISIBILITY
$$




USA.gov is the U.S. government's official web portal to all federal, state and local government web resources and services.